Weather History for Dyersburg, TN

Change the Weather History Date:

Saturday, February 2, 2013

  Actual Average Record
Temperature  
Mean Temperature 36 °F -  
Max Temperature 46 °F 46 °F 64 °F (1997)
Min Temperature 26 °F 32 °F 21 °F (2000)
Degree Days  
Heating Degree Days 29    
Moisture  
Dew Point 21 °F    
Average Humidity 52    
Maximum Humidity 60    
Minimum Humidity 42    
Precipitation  
Precipitation 0.00 in - - ()
Sea Level Pressure  
Sea Level Pressure 30.21 in    
Wind  
Wind Speed 5 mph (SW)    
Max Wind Speed 17 mph    
Max Gust Speed 22 mph    
Visibility 10 miles    
Events      
Averages and records for this station are not official NWS values.
T = Trace of Precipitation, MM = Missing Value Source: NWS Daily Summary

Daily Weather History Graph

Daily Weather History Graph

Search for Another Location

Airport:

Trip Planner

Search our weather history database for the weather conditions in past years. The results will help you decide how hot, cold, wet, or windy it might be!

Date:

Astronomy

Feb. 02, 2013 Rise Set
Actual Time 6:57 AM CST 5:25 PM CST
Civil Twilight 6:30 AM CST 5:52 PM CST
Nautical Twilight 5:59 AM CST 6:23 PM CST
Astronomical Twilight 5:29 AM CST 6:53 PM CST
Moon No Moon Rise 10:22 AM CST (2/2)
Length of Visible Light 11h 22m
Length of Day
10h 28m
Waning Gibbous, 59% of the Moon is Illuminated
Feb 2
Waning Gibbous
Feb 3
Last Quarter
Feb 10
New
Feb 17
First Quarter
Feb 25
Full

Hourly Weather History & Observations

Time (CST) Temp. Windchill Dew Point Humidity Pressure Visibility Wind Dir Wind Speed Gust Speed Precip Events Conditions
12:16 AM 26.6 °F 21.2 °F 10.4 °F 51% 30.32 in 10.0 mi ESE 4.6 mph - N/A   Clear
12:35 AM 26.6 °F 20.0 °F 10.4 °F 51% 30.32 in 10.0 mi SE 5.8 mph - N/A   Clear
12:56 AM 26.6 °F - 10.4 °F 51% 30.32 in 10.0 mi Calm Calm - N/A   Clear
1:15 AM 26.6 °F 22.6 °F 12.2 °F 55% 30.30 in 10.0 mi ESE 3.5 mph - N/A   Clear
1:35 AM 26.6 °F 20.0 °F 12.2 °F 55% 30.29 in 10.0 mi SE 5.8 mph - N/A   Partly Cloudy
1:56 AM 28.4 °F - 12.2 °F 51% 30.30 in 10.0 mi Calm Calm - N/A   Mostly Cloudy
2:15 AM 28.4 °F - 12.2 °F 51% 30.30 in 10.0 mi Calm Calm - N/A   Overcast
2:35 AM 28.4 °F 24.6 °F 12.2 °F 51% 30.29 in 10.0 mi East 3.5 mph - N/A   Overcast
2:55 AM 28.4 °F 23.3 °F 12.2 °F 51% 30.28 in 10.0 mi ESE 4.6 mph - N/A   Overcast
3:15 AM 28.4 °F 23.3 °F 12.2 °F 51% 30.26 in 10.0 mi SE 4.6 mph - N/A   Overcast
3:35 AM 28.4 °F - 12.2 °F 51% 30.27 in 10.0 mi Calm Calm - N/A   Overcast
3:55 AM 28.4 °F 24.6 °F 14.0 °F 55% 30.26 in 10.0 mi SSE 3.5 mph - N/A   Overcast
4:15 AM 28.4 °F - 15.8 °F 59% 30.26 in 10.0 mi Calm Calm - N/A   Overcast
4:35 AM 30.2 °F 25.4 °F 14.0 °F 51% 30.25 in 10.0 mi ESE 4.6 mph - N/A   Overcast
4:55 AM 30.2 °F - 15.8 °F 55% 30.27 in 10.0 mi Calm Calm - N/A   Mostly Cloudy
5:35 AM 30.2 °F 26.7 °F 15.8 °F 55% 30.25 in 10.0 mi SSE 3.5 mph - N/A   Overcast
6:15 AM 30.2 °F - 15.8 °F 55% 30.25 in 10.0 mi Calm Calm - N/A   Overcast
6:35 AM 30.2 °F 26.7 °F 15.8 °F 55% 30.24 in 10.0 mi South 3.5 mph - N/A   Overcast
6:55 AM 30.2 °F 26.7 °F 15.8 °F 55% 30.24 in 10.0 mi South 3.5 mph - N/A   Mostly Cloudy
7:15 AM 30.2 °F 24.3 °F 15.8 °F 55% 30.23 in 10.0 mi South 5.8 mph - N/A   Partly Cloudy
7:55 AM 32.0 °F 24.8 °F 15.8 °F 51% 30.23 in 10.0 mi South 8.1 mph - N/A   Clear
8:15 AM 33.8 °F 27.7 °F 15.8 °F 48% 30.23 in 10.0 mi South 6.9 mph - N/A   Clear
8:35 AM 33.8 °F 27.0 °F 15.8 °F 48% 30.22 in 10.0 mi South 8.1 mph - N/A   Clear
9:15 AM 37.4 °F 30.8 °F 19.4 °F 48% 30.21 in 10.0 mi South 9.2 mph - N/A   Clear
9:35 AM 37.4 °F 32.8 °F 19.4 °F 48% 30.21 in 10.0 mi SSW 5.8 mph - N/A   Mostly Cloudy
9:55 AM 39.2 °F 33.0 °F 19.4 °F 45% 30.21 in 10.0 mi SW 9.2 mph - N/A   Mostly Cloudy
10:16 AM 41.0 °F 34.3 °F 21.2 °F 45% 30.21 in 10.0 mi SW 11.5 mph 17.3 mph N/A   Mostly Cloudy
10:35 AM 42.8 °F 37.0 °F 21.2 °F 42% 30.21 in 10.0 mi WSW 10.4 mph - N/A   Mostly Cloudy
10:55 AM 42.8 °F 37.0 °F 23.0 °F 46% 30.20 in 10.0 mi West 10.4 mph 17.3 mph N/A   Mostly Cloudy
11:15 AM 42.8 °F 34.8 °F 21.2 °F 42% 30.20 in 10.0 mi WSW 17.3 mph 21.9 mph N/A   Overcast
11:35 AM 42.8 °F 36.6 °F 23.0 °F 46% 30.20 in 10.0 mi West 11.5 mph 16.1 mph N/A   Overcast
11:55 AM 42.8 °F 37.0 °F 23.0 °F 46% 30.19 in 10.0 mi West 10.4 mph - N/A   Overcast
12:15 PM 42.8 °F 35.8 °F 23.0 °F 46% 30.20 in 10.0 mi West 13.8 mph 19.6 mph N/A   Overcast
12:35 PM 42.8 °F 37.0 °F 23.0 °F 46% 30.19 in 10.0 mi West 10.4 mph 17.3 mph N/A   Overcast
12:55 PM 42.8 °F 38.0 °F 23.0 °F 46% 30.17 in 10.0 mi West 8.1 mph - N/A   Overcast
1:16 PM 42.8 °F 38.0 °F 24.8 °F 49% 30.16 in 10.0 mi West 8.1 mph - N/A   Overcast
1:35 PM 42.8 °F 38.0 °F 24.8 °F 49% 30.15 in 10.0 mi West 8.1 mph - N/A   Overcast
1:55 PM 44.6 °F 38.8 °F 24.8 °F 46% 30.14 in 10.0 mi West 11.5 mph - N/A   Mostly Cloudy
2:35 PM 44.6 °F 39.7 °F 26.6 °F 49% 30.14 in 10.0 mi West 9.2 mph 17.3 mph N/A   Clear
2:55 PM 44.6 °F 38.8 °F 26.6 °F 49% 30.15 in 10.0 mi WNW 11.5 mph 18.4 mph N/A   Clear
3:15 PM 46.4 °F 41.1 °F 26.6 °F 46% 30.15 in 10.0 mi West 11.5 mph 18.4 mph N/A   Clear
3:36 PM 44.6 °F 39.2 °F 26.6 °F 49% 30.14 in 10.0 mi West 10.4 mph - N/A   Clear
3:55 PM 44.6 °F 38.8 °F 26.6 °F 49% 30.15 in 10.0 mi West 11.5 mph - N/A   Clear
4:15 PM 44.6 °F 39.2 °F 26.6 °F 49% 30.15 in 10.0 mi WNW 10.4 mph - N/A   Clear
4:35 PM 44.6 °F 40.2 °F 26.6 °F 49% 30.16 in 10.0 mi West 8.1 mph - N/A   Clear
4:55 PM 44.6 °F 39.7 °F 26.6 °F 49% 30.16 in 10.0 mi West 9.2 mph - N/A   Clear
5:15 PM 42.8 °F 40.1 °F 26.6 °F 53% 30.16 in 10.0 mi West 4.6 mph - N/A   Clear
5:55 PM 39.2 °F 37.0 °F 24.8 °F 56% 30.16 in 10.0 mi SW 3.5 mph - N/A   Clear
6:15 PM 39.2 °F 37.0 °F 24.8 °F 56% 30.17 in 10.0 mi SW 3.5 mph - N/A   Clear
6:35 PM 37.4 °F 34.9 °F 24.8 °F 60% 30.17 in 10.0 mi SSW 3.5 mph - N/A   Clear
6:56 PM 37.4 °F 34.9 °F 24.8 °F 60% 30.17 in 10.0 mi SW 3.5 mph - N/A   Clear
7:15 PM 37.4 °F 34.9 °F 24.8 °F 60% 30.18 in 10.0 mi SSW 3.5 mph - N/A   Clear
7:35 PM 37.4 °F 34.9 °F 24.8 °F 60% 30.17 in 10.0 mi SSW 3.5 mph - N/A   Clear
7:55 PM 35.6 °F 32.8 °F 23.0 °F 60% 30.17 in 10.0 mi SW 3.5 mph - N/A   Clear
8:15 PM 37.4 °F 33.8 °F 24.8 °F 60% 30.18 in 10.0 mi WSW 4.6 mph - N/A   Partly Cloudy
8:35 PM 37.4 °F 31.4 °F 24.8 °F 60% 30.17 in 10.0 mi WSW 8.1 mph - N/A   Clear
8:55 PM 39.2 °F 35.0 °F 24.8 °F 56% 30.18 in 10.0 mi WNW 5.8 mph - N/A   Clear
9:16 PM 37.4 °F 32.8 °F 24.8 °F 60% 30.18 in 10.0 mi WNW 5.8 mph - N/A   Clear
9:35 PM 37.4 °F 32.8 °F 24.8 °F 60% 30.18 in 10.0 mi West 5.8 mph - N/A   Clear
9:55 PM 37.4 °F 32.1 °F 24.8 °F 60% 30.17 in 10.0 mi WSW 6.9 mph - N/A   Clear
10:35 PM 37.4 °F 32.8 °F 24.8 °F 60% 30.17 in 10.0 mi West 5.8 mph - N/A   Clear
10:55 PM 37.4 °F 33.8 °F 24.8 °F 60% 30.16 in 10.0 mi WSW 4.6 mph - N/A   Clear
11:15 PM 37.4 °F 32.8 °F 24.8 °F 60% 30.16 in 10.0 mi WSW 5.8 mph - N/A   Partly Cloudy
11:35 PM 37.4 °F 32.1 °F 24.8 °F 60% 30.15 in 10.0 mi WSW 6.9 mph - N/A   Scattered Clouds
11:55 PM 37.4 °F 32.1 °F 24.8 °F 60% 30.15 in 10.0 mi WSW 6.9 mph - N/A   Partly Cloudy